Location: Newark
(46.9000°N, 28.3500°E)
Time: 00:46:41
(UTC+00:00)

Tiros 1 - Visible Passes

Search period start: 22 August 2019 00:00
Search period end: 01 September 2019 00:00
Orbit: 630 x 664 km, 48.4° (Epoch: 21 August)

Date Brightness Start Highest point End Pass type
(mag) Time Alt. Az. Time Alt. Az. Time Alt. Az.
22 Aug 7.3 01:06:15 27° W 01:08:44 73° N 01:13:26 10° E visible
22 Aug 7.6 23:53:28 57° ENE 23:53:28 57° ENE 23:57:15 10° ENE visible
23 Aug 7.2 01:31:09 16° WNW 01:34:56 79° N 01:39:39 10° E visible
23 Aug 9.8 22:40:46 12° ENE 22:40:46 12° ENE 22:41:05 10° ENE visible
24 Aug 7.2 00:18:27 70° NNW 00:18:43 73° N 00:23:25 10° E visible
24 Aug 7.1 01:56:22 10° WNW 02:01:03 80° SSW 02:05:46 10° ESE visible
24 Aug 9.3 23:05:52 19° ENE 23:05:52 19° ENE 23:07:13 10° ENE visible
25 Aug 7.2 00:43:32 45° WNW 00:44:55 78° N 00:49:38 10° E visible
25 Aug 7.3 02:22:31 10° WNW 02:27:04 52° SSW 02:31:38 10° SE visible
25 Aug 8.7 23:31:07 28° ENE 23:31:07 28° ENE 23:33:23 10° E visible
26 Aug 7.0 01:08:48 31° WNW 01:11:04 83° SSW 01:15:45 10° ESE visible
26 Aug 8.2 23:56:37 39° E 23:56:37 39° E 23:59:36 10° E visible
27 Aug 7.2 01:34:19 23° W 01:37:04 54° SSW 01:41:39 10° SE visible
28 Aug 7.8 00:22:27 46° ESE 00:22:27 46° ESE 00:25:45 10° ESE visible
28 Aug 7.9 02:00:11 17° W 02:02:56 31° SW 02:07:04 10° SSE visible
29 Aug 8.0 00:48:42 37° SE 00:48:42 37° SE 00:51:41 10° SE visible
29 Aug 8.7 02:26:28 13° WSW 02:28:37 16° SW 02:31:33 10° S visible
29 Aug 9.0 18:21:48 10° S 18:22:58 14° SSE 18:22:58 14° SSE visible
30 Aug 8.7 01:15:23 20° SSE 01:15:23 20° SSE 01:17:09 10° SSE visible
30 Aug 8.1 18:46:28 10° SSW 18:49:27 29° S 18:49:27 29° S visible
31 Aug 8.6 17:32:01 10° S 17:34:58 17° SE 17:37:45 11° E visible
31 Aug 7.5 19:11:57 10° SW 19:15:29 46° SSW 19:15:29 46° SSW visible
